Oklahoma City, OK

12:20 PM CST on December 15, 2017 (GMT -0600)
Will Rogers World

Weather History for KOKC - July, 2013

Change the Weather History Date:

Thursday, July 25, 2013

  Actual Average Record
Temperature  
Mean Temperature 80 °F 84 °F  
Max Temperature 86 °F 95 °F 106 °F (1977)
Min Temperature 73 °F 73 °F 58 °F (1911)
Degree Days  
Heating Degree Days 0 0  
Month to date heating degree days 0  
Since 1 June heating degree days 1  
Since 1 July heating degree days 0  
Cooling Degree Days 15 19  
Month to date cooling degree days 431 448  
Year to date cooling degree days 1010 1088  
Since 1 June cooling degree days 838  
Growing Degree Days 30 (Base 50)    
Moisture  
Dew Point 70 °F    
Average Humidity 71    
Maximum Humidity 87    
Minimum Humidity 55    
Precipitation  
Precipitation 0.02 in 0.09 in 1.96 in (1906)
Month to date precipitation 5.09 2.40  
Year to date precipitation 36.94 21.08  
Sea Level Pressure  
Sea Level Pressure 30.00 in    
Wind  
Wind Speed 6 mph (SSE)    
Max Wind Speed 14 mph    
Max Gust Speed 17 mph    
Visibility 10 miles    
Events Rain , Thunderstorm    
T = Trace of Precipitation, MM = Missing Value Source: NWS Daily Summary

Daily Weather History Graph

Daily Weather History Graph

Search for Another Location

Airport or City:

Trip Planner

Search our weather history database for the weather conditions in past years. The results will help you decide how hot, cold, wet, or windy it might be!

Date:

Astronomy

Jul. 25, 2013 Rise Set
Actual Time 6:33 AM CDT 8:39 PM CDT
Civil Twilight 6:05 AM CDT 9:07 PM CDT
Nautical Twilight 5:30 AM CDT 9:42 PM CDT
Astronomical Twilight 4:53 AM CDT 10:19 PM CDT
Moon 10:30 PM CDT (7/25) 9:55 AM CDT (7/25)
Length of Visible Light 15h 02m
Length of Day
14h 05m
Waning Gibbous, 88% of the Moon is Illuminated
Jul 25
Waning Gibbous
Jul 29
Last Quarter
Aug 6
New
Aug 14
First Quarter
Aug 20
Full

Hourly Weather History & Observations

Time (CDT) Temp. Heat Index Dew Point Humidity Pressure Visibility Wind Dir Wind Speed Gust Speed Precip Events Conditions
12:52 AM 75.0 °F - 70.0 °F 84% 29.99 in 10.0 mi SSE 5.8 mph - N/A   Mostly Cloudy
1:52 AM 73.9 °F - 69.1 °F 85% 29.99 in 10.0 mi SSE 4.6 mph - N/A   Mostly Cloudy
2:52 AM 73.9 °F - 69.1 °F 85% 29.99 in 10.0 mi ESE 3.5 mph - N/A   Mostly Cloudy
3:52 AM 73.0 °F - 69.1 °F 87% 29.99 in 10.0 mi Calm Calm - N/A   Mostly Cloudy
4:52 AM 73.9 °F - 68.0 °F 82% 30.01 in 10.0 mi East 3.5 mph - N/A   Mostly Cloudy
5:52 AM 75.0 °F - 69.1 °F 82% 30.01 in 10.0 mi ENE 5.8 mph - N/A   Mostly Cloudy
6:52 AM 73.0 °F - 69.1 °F 87% 30.03 in 10.0 mi SW 4.6 mph - N/A   Mostly Cloudy
7:52 AM 73.9 °F - 69.1 °F 85% 30.05 in 10.0 mi Calm Calm - N/A   Overcast
8:52 AM 77.0 °F - 70.0 °F 79% 30.04 in 10.0 mi Calm Calm - N/A   Overcast
9:52 AM 81.0 °F 84.9 °F 71.1 °F 72% 30.05 in 10.0 mi Calm Calm - N/A   Overcast
10:52 AM 84.0 °F 87.8 °F 69.1 °F 61% 30.05 in 10.0 mi South 6.9 mph - N/A   Overcast
11:52 AM 84.0 °F 86.5 °F 66.9 °F 56% 30.05 in 10.0 mi SSE 10.4 mph - N/A   Overcast
12:52 PM 84.9 °F 88.8 °F 69.1 °F 59% 30.05 in 10.0 mi South 10.4 mph - N/A   Overcast
1:52 PM 84.9 °F 88.8 °F 69.1 °F 59% 30.06 in 10.0 mi South 8.1 mph - N/A   Overcast
2:52 PM 84.0 °F 87.8 °F 69.1 °F 61% 30.06 in 10.0 mi WSW 6.9 mph - N/A   Overcast
3:52 PM 84.0 °F 87.8 °F 69.1 °F 61% 29.98 in 10.0 mi SSE 10.4 mph - N/A   Overcast
4:52 PM 84.0 °F 88.4 °F 70.0 °F 63% 29.97 in 10.0 mi SSE 9.2 mph - N/A   Overcast
5:52 PM 84.0 °F 88.4 °F 70.0 °F 63% 29.96 in 10.0 mi South 10.4 mph 17.3 mph N/A   Overcast
6:52 PM 82.0 °F 85.9 °F 70.0 °F 67% 29.96 in 10.0 mi South 4.6 mph - 0.00 in   Overcast
7:52 PM 81.0 °F 84.9 °F 71.1 °F 72% 29.99 in 10.0 mi SW 4.6 mph - N/A   Overcast
8:52 PM 78.1 °F - 72.0 °F 81% 29.97 in 10.0 mi South 9.2 mph - 0.00 in Rain Light Rain
9:52 PM 78.1 °F - 72.0 °F 81% 29.97 in 10.0 mi South 5.8 mph - 0.00 in   Overcast
10:52 PM 77.0 °F - 72.0 °F 84% 29.97 in 10.0 mi SSE 6.9 mph - 0.00 in Rain Light Rain
10:58 PM 77.0 °F - 71.6 °F 83% 30.02 in 10.0 mi SSE 5.8 mph - 0.00 in Rain , Thunderstorm Light Thunderstorms and Rain
11:48 PM 77.0 °F - 71.6 °F 83% 30.02 in 10.0 mi SE 8.1 mph - 0.01 in Rain Light Rain
11:52 PM 77.0 °F - 72.0 °F 84% 29.96 in 10.0 mi SE 9.2 mph - 0.01 in Rain Light Rain